QPF
0.04 0.06 0.07 0.03 0.02 0.01 0.02 0.01 0.01 0.01 0.01 0.01 0.01 0.01 0.01 0.01 0.01 0.02 0.02 0.03 0.03 0.03 0.05 0.04 0.05 0.05 0.05 0.05 0.06 0.07 0.08 0.07 0.06 0.07 0.09 0.08 0.07 0.08 0.08 0.10 0.07 0.04 0.06
0.01 0.03 0.07 0.03 0.02 0.01 0.01 0.01 0.01 0.01 0.01 0.01 0.01 0.01 0.01 0.01 0.01 0.02 0.02 0.04 0.03 0.04 0.04 0.06 0.05 0.05 0.05 0.05 0.05 0.07 0.06 0.08 0.09 0.10 0.12 0.10 0.09 0.07 0.08 0.10 0.08 0.04 0.07
0.01 0.01 0.04 0.04 0.02 0.01 0.01 0.01 0.01 0.01 0.01 0.01 0.01 0.01 0.01 0.01 0.02 0.02 0.03 0.04 0.04 0.04 0.05 0.06 0.05 0.06 0.05 0.06 0.06 0.06 0.07 0.09 0.10 0.13 0.13 0.09 0.10 0.08 0.06 0.07 0.08 0.07 0.07
0.00 0.00 0.01 0.02 0.02 0.01 0.01 0.01 0.01 0.00 0.01 0.01 0.01 0.01 0.01 0.03 0.04 0.04 0.03 0.04 0.04 0.04 0.03 0.04 0.04 0.05 0.07 0.09 0.10 0.06 0.07 0.09 0.09 0.07 0.06 0.04 0.06 0.06 0.05 0.06 0.06 0.06 0.06
0.00 0.00 0.01 0.02 0.01 0.01 0.01 0.01 0.01 0.00 0.00 0.00 0.01 0.01 0.01 0.02 0.03 0.05 0.04 0.03 0.04 0.04 0.02 0.04 0.05 0.06 0.07 0.12 0.12 0.07 0.07 0.09 0.09 0.03 0.03 0.04 0.05 0.06 0.04 0.03 0.04 0.05 0.06
0.00 0.00 0.01 0.01 0.01 0.01 0.01 0.01 0.01 0.00 0.01 0.01 0.01 0.01 0.01 0.02 0.02 0.03 0.03 0.02 0.03 0.04 0.04 0.04 0.05 0.07 0.06 0.06 0.09 0.09 0.08 0.09 0.05 0.02 0.03 0.04 0.05 0.06 0.04 0.04 0.06 0.07 0.06
0.01 0.00 0.01 0.01 0.01 0.00 0.01 0.01 0.01 0.01 0.02 0.02 0.01 0.01 0.01 0.02 0.03 0.03 0.03 0.03 0.03 0.03 0.02 0.02 0.04 0.06 0.09 0.09 0.09 0.09 0.07 0.05 0.04 0.03 0.03 0.04 0.05 0.06 0.05 0.04 0.05 0.08 0.07
0.01 0.00 0.01 0.01 0.01 0.01 0.01 0.01 0.01 0.01 0.02 0.02 0.01 0.02 0.02 0.02 0.02 0.02 0.02 0.03 0.03 0.02 0.02 0.03 0.04 0.06 0.07 0.08 0.09 0.08 0.05 0.03 0.03 0.02 0.02 0.02 0.03 0.04 0.07 0.08 0.12 0.16 0.12
0.02 0.02 0.02 0.02 0.01 0.01 0.01 0.01 0.01 0.01 0.01 0.01 0.01 0.01 0.02 0.02 0.02 0.02 0.02 0.03 0.02 0.02 0.02 0.03 0.04 0.07 0.07 0.07 0.08 0.07 0.04 0.02 0.02 0.02 0.01 0.01 0.02 0.03 0.04 0.07 0.10 0.09 0.07
0.03 0.04 0.03 0.03 0.01 0.01 0.01 0.01 0.01 0.01 0.01 0.01 0.02 0.01 0.01 0.02 0.01 0.02 0.02 0.03 0.01 0.01 0.02 0.03 0.04 0.04 0.06 0.07 0.07 0.08 0.06 0.02 0.01 0.01 0.01 0.01 0.02 0.02 0.03 0.03 0.04 0.03 0.04
0.02 0.03 0.03 0.03 0.01 0.01 0.01 0.02 0.02 0.01 0.02 0.02 0.02 0.02 0.02 0.01 0.01 0.01 0.01 0.03 0.02 0.01 0.02 0.03 0.04 0.03 0.03 0.05 0.06 0.09 0.06 0.02 0.01 0.01 0.00 0.01 0.02 0.03 0.03 0.03 0.03 0.03 0.03
0.01 0.01 0.03 0.03 0.01 0.01 0.01 0.02 0.01 0.01 0.01 0.01 0.01 0.01 0.00 0.00 0.01 0.01 0.01 0.03 0.04 0.03 0.02 0.04 0.05 0.04 0.02 0.02 0.04 0.06 0.04 0.03 0.02 0.01 0.00 0.01 0.02 0.03 0.04 0.04 0.03 0.03 0.03
0.04 0.01 0.02 0.03 0.01 0.01 0.01 0.01 0.01 0.00 0.01 0.01 0.01 0.01 0.00 0.01 0.01 0.01 0.00 0.01 0.02 0.02 0.01 0.02 0.02 0.02 0.02 0.01 0.01 0.02 0.03 0.03 0.01 0.00 0.01 0.02 0.02 0.02 0.03 0.03 0.03 0.03 0.03
0.06 0.04 0.02 0.02 0.02 0.01 0.01 0.02 0.01 0.01 0.01 0.01 0.02 0.02 0.02 0.01 0.01 0.00 0.00 0.01 0.00 0.00 0.01 0.01 0.03 0.02 0.01 0.02 0.01 0.02 0.02 0.02 0.01 0.01 0.02 0.02 0.02 0.02 0.02 0.02 0.02 0.03 0.02
0.07 0.05 0.05 0.05 0.04 0.02 0.03 0.04 0.04 0.03 0.03 0.03 0.02 0.02 0.02 0.02 0.02 0.02 0.01 0.02 0.01 0.01 0.01 0.01 0.02 0.02 0.02 0.02 0.01 0.01 0.01 0.01 0.00 0.01 0.02 0.02 0.02 0.02 0.02 0.02 0.03 0.03 0.02
0.08 0.08 0.09 0.09 0.07 0.05 0.06 0.08 0.06 0.06 0.07 0.05 0.03 0.03 0.03 0.02 0.03 0.03 0.03 0.02 0.02 0.03 0.02 0.01 0.01 0.01 0.02 0.02 0.01 0.01 0.01 0.01 0.00 0.00 0.01 0.02 0.03 0.03 0.03 0.04 0.03 0.03 0.03
0.07 0.09 0.14 0.12 0.11 0.11 0.10 0.10 0.06 0.06 0.07 0.06 0.04 0.03 0.03 0.02 0.03 0.03 0.03 0.03 0.02 0.03 0.03 0.01 0.02 0.02 0.02 0.02 0.02 0.01 0.01 0.01 0.01 0.00 0.01 0.01 0.01 0.03 0.03 0.04 0.05 0.04 0.03
0.06 0.08 0.13 0.10 0.11 0.16 0.16 0.12 0.10 0.11 0.11 0.08 0.07 0.05 0.04 0.03 0.03 0.03 0.04 0.04 0.03 0.03 0.02 0.02 0.03 0.05 0.04 0.04 0.03 0.02 0.01 0.00 0.00 0.01 0.01 0.01 0.00 0.00 0.02 0.03 0.04 0.05 0.05
0.06 0.09 0.11 0.09 0.14 0.27 0.27 0.23 0.17 0.12 0.09 0.08 0.08 0.08 0.07 0.05 0.04 0.03 0.03 0.03 0.03 0.02 0.03 0.02 0.02 0.03 0.03 0.04 0.04 0.04 0.02 0.01 0.01 0.01 0.01 0.01 0.00 0.00 0.01 0.02 0.04 0.05 0.05
0.06 0.07 0.07 0.10 0.15 0.17 0.28 0.34 0.22 0.14 0.11 0.11 0.12 0.11 0.08 0.04 0.03 0.03 0.04 0.02 0.02 0.02 0.02 0.02 0.02 0.02 0.02 0.01 0.02 0.02 0.02 0.02 0.02 0.02 0.01 0.01 0.01 0.01 0.02 0.02 0.02 0.03 0.05
0.05 0.06 0.08 0.11 0.15 0.17 0.17 0.15 0.14 0.12 0.10 0.10 0.11 0.11 0.09 0.07 0.06 0.05 0.05 0.02 0.01 0.01 0.01 0.02 0.04 0.04 0.03 0.02 0.02 0.02 0.02 0.03 0.03 0.02 0.02 0.03 0.02 0.02 0.01 0.03 0.04 0.03 0.03
0.05 0.07 0.09 0.14 0.17 0.18 0.18 0.15 0.11 0.11 0.12 0.11 0.11 0.10 0.09 0.10 0.09 0.08 0.05 0.04 0.03 0.02 0.02 0.03 0.05 0.04 0.04 0.03 0.04 0.04 0.03 0.02 0.02 0.02 0.03 0.03 0.03 0.03 0.04 0.04 0.03 0.03 0.03
0.06 0.07 0.13 0.18 0.17 0.16 0.14 0.12 0.10 0.11 0.13 0.12 0.10 0.09 0.08 0.08 0.10 0.08 0.08 0.06 0.05 0.04 0.03 0.03 0.05 0.04 0.04 0.03 0.03 0.03 0.02 0.01 0.01 0.02 0.02 0.03 0.04 0.05 0.06 0.06 0.05 0.06 0.07
0.06 0.06 0.10 0.11 0.07 0.09 0.08 0.06 0.06 0.07 0.09 0.09 0.09 0.09 0.09 0.12 0.14 0.11 0.09 0.07 0.06 0.04 0.03 0.03 0.03 0.03 0.03 0.02 0.02 0.02 0.02 0.01 0.01 0.01 0.01 0.01 0.02 0.02 0.03 0.05 0.06 0.07 0.08
0.04 0.04 0.04 0.06 0.06 0.05 0.05 0.04 0.05 0.06 0.07 0.09 0.10 0.11 0.13 0.15 0.12 0.09 0.08 0.06 0.06 0.04 0.04 0.04 0.04 0.03 0.02 0.02 0.02 0.02 0.01 0.01 0.01 0.01 0.01 0.01 0.01 0.01 0.02 0.04 0.04 0.05 0.05
0.05 0.05 0.04 0.05 0.05 0.04 0.03 0.04 0.04 0.05 0.07 0.08 0.08 0.09 0.10 0.08 0.06 0.06 0.06 0.05 0.06 0.06 0.05 0.05 0.04 0.03 0.03 0.02 0.03 0.03 0.02 0.02 0.02 0.02 0.01 0.01 0.01 0.02 0.03 0.05 0.05 0.04 0.04
MSLP
1013.99 1013.62 1013.44 1013.48 1013.68 1013.97 1014.27 1014.52 1014.67 1014.70 1014.65 1014.55 1014.45 1014.41 1014.43 1014.52 1014.66 1014.80 1014.93 1015.02 1015.07 1015.11 1015.15 1015.22 1015.34 1015.52 1015.74 1015.99 1016.25 1016.49 1016.70 1016.88 1017.03 1017.17 1017.32 1017.47 1017.63 1017.80 1017.96 1018.12 1018.27 1018.42 1018.57
1013.88 1013.61 1013.52 1013.63 1013.88 1014.20 1014.53 1014.77 1014.91 1014.93 1014.85 1014.72 1014.62 1014.57 1014.59 1014.70 1014.86 1015.03 1015.19 1015.30 1015.37 1015.41 1015.44 1015.50 1015.60 1015.75 1015.96 1016.20 1016.45 1016.71 1016.94 1017.15 1017.34 1017.51 1017.68 1017.83 1017.99 1018.14 1018.29 1018.44 1018.58 1018.73 1018.89
1013.81 1013.62 1013.60 1013.75 1014.03 1014.37 1014.70 1014.95 1015.08 1015.09 1015.00 1014.88 1014.78 1014.74 1014.78 1014.89 1015.06 1015.24 1015.40 1015.52 1015.59 1015.62 1015.64 1015.68 1015.76 1015.90 1016.10 1016.33 1016.60 1016.87 1017.13 1017.38 1017.61 1017.81 1018.01 1018.18 1018.34 1018.49 1018.63 1018.77 1018.91 1019.06 1019.22
1013.77 1013.65 1013.68 1013.85 1014.14 1014.48 1014.80 1015.04 1015.18 1015.19 1015.13 1015.03 1014.95 1014.93 1014.98 1015.10 1015.27 1015.44 1015.59 1015.69 1015.75 1015.77 1015.79 1015.82 1015.90 1016.03 1016.22 1016.47 1016.74 1017.03 1017.32 1017.61 1017.87 1018.11 1018.33 1018.52 1018.69 1018.84 1018.98 1019.11 1019.25 1019.40 1019.57
1013.78 1013.71 1013.76 1013.94 1014.22 1014.54 1014.85 1015.09 1015.23 1015.27 1015.24 1015.18 1015.14 1015.15 1015.22 1015.34 1015.49 1015.65 1015.77 1015.86 1015.90 1015.91 1015.93 1015.97 1016.06 1016.21 1016.42 1016.67 1016.96 1017.26 1017.57 1017.87 1018.16 1018.42 1018.65 1018.86 1019.04 1019.20 1019.33 1019.47 1019.61 1019.77 1019.95
1013.86 1013.82 1013.88 1014.05 1014.31 1014.61 1014.90 1015.13 1015.28 1015.35 1015.36 1015.35 1015.35 1015.40 1015.48 1015.61 1015.75 1015.87 1015.97 1016.04 1016.07 1016.09 1016.13 1016.20 1016.32 1016.50 1016.73 1016.99 1017.29 1017.59 1017.90 1018.20 1018.48 1018.75 1018.99 1019.21 1019.39 1019.55 1019.69 1019.82 1019.96 1020.13 1020.32
1014.03 1014.01 1014.07 1014.23 1014.46 1014.72 1014.98 1015.20 1015.35 1015.44 1015.49 1015.53 1015.58 1015.66 1015.77 1015.90 1016.03 1016.14 1016.21 1016.26 1016.30 1016.34 1016.41 1016.53 1016.69 1016.90 1017.16 1017.43 1017.72 1018.01 1018.30 1018.58 1018.85 1019.10 1019.34 1019.55 1019.74 1019.89 1020.03 1020.15 1020.30 1020.46 1020.65
1014.28 1014.29 1014.35 1014.50 1014.70 1014.93 1015.15 1015.34 1015.48 1015.58 1015.66 1015.74 1015.83 1015.95 1016.08 1016.22 1016.34 1016.44 1016.50 1016.55 1016.60 1016.67 1016.78 1016.94 1017.15 1017.40 1017.67 1017.95 1018.22 1018.48 1018.73 1018.98 1019.22 1019.45 1019.67 1019.87 1020.05 1020.20 1020.33 1020.45 1020.58 1020.73 1020.92
1014.61 1014.64 1014.73 1014.87 1015.05 1015.24 1015.42 1015.56 1015.67 1015.77 1015.86 1015.96 1016.09 1016.24 1016.40 1016.55 1016.67 1016.77 1016.83 1016.88 1016.94 1017.04 1017.18 1017.38 1017.63 1017.90 1018.18 1018.46 1018.71 1018.93 1019.14 1019.34 1019.54 1019.75 1019.95 1020.15 1020.32 1020.46 1020.58 1020.69 1020.80 1020.93 1021.09
1014.96 1015.04 1015.16 1015.32 1015.49 1015.64 1015.77 1015.87 1015.94 1016.00 1016.09 1016.20 1016.35 1016.53 1016.71 1016.88 1017.02 1017.12 1017.18 1017.24 1017.31 1017.42 1017.58 1017.80 1018.07 1018.35 1018.63 1018.89 1019.11 1019.29 1019.46 1019.62 1019.79 1019.98 1020.17 1020.36 1020.54 1020.68 1020.79 1020.88 1020.96 1021.05 1021.19
1015.26 1015.41 1015.59 1015.78 1015.95 1016.09 1016.18 1016.23 1016.25 1016.28 1016.34 1016.46 1016.62 1016.82 1017.03 1017.22 1017.37 1017.48 1017.55 1017.60 1017.67 1017.78 1017.94 1018.16 1018.42 1018.69 1018.95 1019.19 1019.38 1019.53 1019.67 1019.80 1019.96 1020.13 1020.33 1020.52 1020.70 1020.85 1020.95 1021.02 1021.07 1021.13 1021.23
1015.48 1015.71 1015.96 1016.20 1016.40 1016.53 1016.59 1016.60 1016.58 1016.58 1016.62 1016.72 1016.89 1017.11 1017.34 1017.55 1017.72 1017.84 1017.91 1017.96 1018.02 1018.11 1018.25 1018.44 1018.67 1018.91 1019.15 1019.35 1019.52 1019.65 1019.77 1019.89 1020.04 1020.22 1020.42 1020.63 1020.82 1020.97 1021.08 1021.14 1021.17 1021.20 1021.25
1015.57 1015.89 1016.23 1016.53 1016.77 1016.91 1016.97 1016.95 1016.91 1016.87 1016.89 1016.99 1017.16 1017.39 1017.64 1017.88 1018.07 1018.20 1018.28 1018.32 1018.35 1018.41 1018.51 1018.66 1018.84 1019.05 1019.25 1019.43 1019.57 1019.69 1019.80 1019.93 1020.08 1020.26 1020.47 1020.70 1020.90 1021.07 1021.18 1021.24 1021.26 1021.26 1021.28
1015.55 1015.96 1016.37 1016.74 1017.03 1017.20 1017.27 1017.25 1017.20 1017.15 1017.16 1017.25 1017.43 1017.67 1017.94 1018.20 1018.41 1018.56 1018.63 1018.66 1018.67 1018.69 1018.75 1018.85 1018.99 1019.15 1019.32 1019.47 1019.60 1019.72 1019.83 1019.95 1020.11 1020.29 1020.51 1020.74 1020.95 1021.13 1021.26 1021.33 1021.34 1021.34 1021.34
1015.48 1015.94 1016.41 1016.83 1017.16 1017.37 1017.47 1017.48 1017.43 1017.40 1017.41 1017.50 1017.68 1017.93 1018.21 1018.49 1018.72 1018.88 1018.96 1018.99 1018.99 1018.98 1019.00 1019.06 1019.16 1019.28 1019.42 1019.56 1019.68 1019.80 1019.90 1020.02 1020.16 1020.34 1020.54 1020.76 1020.97 1021.15 1021.28 1021.37 1021.40 1021.41 1021.40
1015.40 1015.89 1016.38 1016.83 1017.19 1017.44 1017.58 1017.62 1017.62 1017.60 1017.63 1017.73 1017.91 1018.16 1018.44 1018.72 1018.97 1019.14 1019.24 1019.28 1019.28 1019.27 1019.27 1019.31 1019.38 1019.48 1019.61 1019.74 1019.85 1019.96 1020.06 1020.16 1020.27 1020.40 1020.57 1020.75 1020.93 1021.10 1021.23 1021.33 1021.40 1021.42 1021.44
1015.40 1015.87 1016.34 1016.79 1017.16 1017.44 1017.62 1017.72 1017.75 1017.77 1017.82 1017.93 1018.10 1018.34 1018.61 1018.88 1019.13 1019.32 1019.45 1019.51 1019.53 1019.54 1019.55 1019.58 1019.66 1019.76 1019.88 1020.00 1020.12 1020.21 1020.29 1020.35 1020.41 1020.49 1020.58 1020.70 1020.83 1020.96 1021.09 1021.20 1021.29 1021.35 1021.40
1015.50 1015.91 1016.34 1016.75 1017.12 1017.42 1017.64 1017.78 1017.86 1017.93 1017.99 1018.10 1018.25 1018.46 1018.70 1018.95 1019.19 1019.40 1019.55 1019.65 1019.71 1019.76 1019.80 1019.86 1019.95 1020.07 1020.19 1020.32 1020.43 1020.51 1020.56 1020.58 1020.57 1020.57 1020.58 1020.61 1020.66 1020.74 1020.84 1020.95 1021.06 1021.15 1021.24
1015.72 1016.05 1016.40 1016.76 1017.10 1017.40 1017.65 1017.84 1017.98 1018.08 1018.16 1018.25 1018.37 1018.53 1018.72 1018.94 1019.16 1019.36 1019.54 1019.69 1019.80 1019.90 1019.99 1020.10 1020.22 1020.35 1020.49 1020.63 1020.73 1020.80 1020.82 1020.79 1020.72 1020.64 1020.55 1020.48 1020.45 1020.46 1020.51 1020.60 1020.71 1020.82 1020.93
1016.03 1016.27 1016.53 1016.82 1017.12 1017.42 1017.70 1017.93 1018.11 1018.24 1018.33 1018.40 1018.47 1018.57 1018.69 1018.85 1019.04 1019.24 1019.43 1019.62 1019.79 1019.95 1020.09 1020.24 1020.40 1020.55 1020.71 1020.85 1020.96 1021.02 1021.02 1020.96 1020.83 1020.67 1020.50 1020.34 1020.21 1020.14 1020.13 1020.17 1020.26 1020.37 1020.49
1016.36 1016.53 1016.71 1016.93 1017.20 1017.49 1017.79 1018.06 1018.28 1018.43 1018.52 1018.56 1018.57 1018.59 1018.63 1018.73 1018.86 1019.04 1019.25 1019.47 1019.69 1019.89 1020.09 1020.27 1020.45 1020.63 1020.79 1020.94 1021.05 1021.11 1021.11 1021.03 1020.88 1020.68 1020.44 1020.20 1019.99 1019.83 1019.74 1019.72 1019.76 1019.85 1019.95
1016.66 1016.77 1016.90 1017.07 1017.31 1017.60 1017.92 1018.22 1018.47 1018.64 1018.72 1018.72 1018.67 1018.61 1018.58 1018.59 1018.68 1018.83 1019.03 1019.27 1019.51 1019.75 1019.97 1020.17 1020.36 1020.54 1020.70 1020.85 1020.97 1021.05 1021.06 1020.99 1020.85 1020.63 1020.37 1020.08 1019.80 1019.57 1019.39 1019.29 1019.26 1019.29 1019.35
1016.87 1016.95 1017.05 1017.19 1017.42 1017.71 1018.05 1018.39 1018.66 1018.84 1018.91 1018.88 1018.77 1018.64 1018.53 1018.47 1018.50 1018.62 1018.81 1019.04 1019.29 1019.54 1019.76 1019.96 1020.13 1020.29 1020.44 1020.58 1020.71 1020.80 1020.85 1020.83 1020.72 1020.53 1020.27 1019.97 1019.65 1019.35 1019.10 1018.91 1018.79 1018.74 1018.74
1016.95 1017.04 1017.12 1017.26 1017.48 1017.79 1018.15 1018.50 1018.80 1018.99 1019.05 1018.99 1018.84 1018.65 1018.48 1018.37 1018.35 1018.42 1018.59 1018.82 1019.06 1019.29 1019.49 1019.66 1019.79 1019.91 1020.02 1020.14 1020.27 1020.39 1020.48 1020.51 1020.47 1020.34 1020.12 1019.83 1019.50 1019.16 1018.84 1018.57 1018.36 1018.22 1018.14
1016.90 1017.01 1017.09 1017.23 1017.46 1017.78 1018.15 1018.53 1018.84 1019.04 1019.10 1019.02 1018.85 1018.62 1018.40 1018.25 1018.20 1018.25 1018.39 1018.60 1018.82 1019.02 1019.18 1019.29 1019.37 1019.42 1019.49 1019.58 1019.69 1019.83 1019.97 1020.07 1020.10 1020.04 1019.88 1019.63 1019.31 1018.94 1018.58 1018.24 1017.95 1017.73 1017.57
1016.75 1016.86 1016.96 1017.10 1017.34 1017.66 1018.04 1018.42 1018.74 1018.95 1019.01 1018.94 1018.75 1018.51 1018.27 1018.11 1018.04 1018.07 1018.20 1018.39 1018.58 1018.74 1018.85 1018.90 1018.90 1018.89 1018.89 1018.93 1019.03 1019.17 1019.33 1019.49 1019.59 1019.60 1019.51 1019.30 1019.01 1018.64 1018.25 1017.87 1017.52 1017.23 1017.01
Thickness
5771 5773 5772 5771 5770 5769 5769 5769 5769 5768 5768 5768 5767 5766 5765 5764 5763 5762 5762 5761 5760 5759 5758 5757 5755 5754 5752 5751 5750 5748 5747 5746 5745 5744 5743 5742 5742 5741 5739 5738 5737 5735 5734
5775 5773 5771 5770 5769 5768 5767 5767 5767 5766 5766 5765 5765 5764 5763 5762 5761 5760 5760 5759 5758 5757 5756 5754 5753 5751 5750 5748 5747 5746 5745 5744 5743 5742 5741 5741 5739 5738 5737 5736 5735 5733 5732
5775 5773 5771 5769 5768 5767 5766 5765 5764 5764 5763 5763 5762 5762 5761 5760 5759 5759 5758 5757 5756 5754 5753 5751 5750 5748 5747 5746 5745 5744 5743 5742 5741 5740 5739 5738 5737 5736 5736 5734 5733 5732 5730
5775 5772 5770 5768 5767 5765 5764 5763 5762 5762 5761 5761 5760 5759 5759 5758 5758 5757 5756 5754 5753 5752 5750 5749 5748 5746 5745 5743 5742 5741 5740 5739 5738 5737 5736 5736 5735 5734 5734 5732 5731 5730 5729
5773 5771 5769 5767 5765 5764 5763 5762 5760 5760 5759 5759 5758 5757 5757 5756 5756 5755 5753 5752 5751 5750 5748 5747 5745 5744 5743 5741 5740 5739 5738 5737 5735 5734 5734 5733 5733 5732 5732 5731 5730 5728 5727
5772 5769 5768 5766 5764 5762 5761 5760 5759 5758 5757 5757 5756 5755 5755 5754 5754 5752 5751 5750 5749 5748 5746 5745 5743 5742 5741 5740 5738 5737 5736 5735 5733 5732 5732 5731 5731 5731 5731 5730 5728 5726 5725
5770 5768 5766 5764 5762 5761 5760 5758 5757 5756 5756 5755 5754 5754 5753 5752 5751 5750 5749 5748 5747 5746 5744 5743 5742 5740 5739 5738 5737 5736 5734 5733 5732 5731 5730 5730 5729 5729 5729 5728 5727 5725 5724
5769 5767 5764 5762 5760 5759 5758 5757 5756 5755 5754 5753 5752 5752 5751 5750 5750 5749 5748 5747 5745 5744 5743 5742 5740 5739 5738 5737 5736 5734 5733 5732 5730 5729 5728 5728 5728 5728 5727 5726 5725 5724 5722
5767 5765 5763 5761 5759 5757 5756 5755 5754 5753 5752 5751 5750 5750 5749 5748 5748 5747 5746 5745 5744 5743 5742 5741 5739 5738 5737 5736 5735 5733 5732 5731 5729 5728 5728 5727 5727 5727 5726 5724 5724 5722 5721
5765 5763 5761 5759 5757 5756 5754 5753 5752 5751 5750 5749 5749 5748 5747 5746 5746 5745 5744 5743 5743 5742 5740 5739 5738 5737 5736 5735 5734 5733 5731 5730 5729 5728 5727 5726 5726 5726 5725 5724 5723 5721 5720
5763 5761 5759 5757 5755 5754 5753 5752 5751 5750 5749 5748 5747 5746 5745 5744 5744 5743 5742 5742 5741 5740 5739 5738 5737 5736 5735 5734 5733 5732 5730 5729 5728 5727 5726 5726 5726 5726 5725 5723 5722 5721 5720
5761 5760 5758 5756 5755 5753 5752 5750 5749 5748 5747 5746 5745 5744 5743 5742 5742 5742 5741 5741 5740 5739 5738 5737 5737 5735 5734 5733 5732 5731 5730 5728 5727 5727 5726 5726 5725 5725 5724 5723 5722 5721 5719
5764 5761 5758 5756 5754 5752 5750 5749 5747 5746 5745 5744 5743 5742 5742 5741 5740 5740 5740 5739 5739 5738 5737 5736 5735 5734 5733 5733 5731 5730 5729 5728 5727 5727 5726 5726 5725 5725 5724 5723 5722 5720 5719
5763 5761 5759 5757 5754 5751 5749 5748 5746 5744 5743 5742 5741 5741 5740 5740 5739 5738 5738 5738 5738 5737 5737 5736 5735 5734 5733 5732 5731 5730 5729 5728 5727 5727 5726 5725 5725 5724 5724 5723 5721 5720 5719
5765 5762 5760 5757 5754 5751 5749 5746 5745 5743 5742 5741 5740 5740 5739 5739 5738 5738 5737 5737 5737 5737 5736 5735 5735 5734 5733 5732 5731 5731 5730 5729 5728 5727 5726 5725 5725 5724 5723 5722 5721 5720 5718
5766 5763 5760 5757 5753 5751 5748 5746 5745 5743 5742 5741 5740 5740 5739 5738 5737 5737 5737 5737 5737 5736 5736 5735 5735 5734 5733 5732 5731 5731 5730 5729 5728 5727 5726 5726 5725 5724 5723 5722 5721 5720 5718
5767 5764 5760 5757 5754 5751 5748 5747 5745 5744 5742 5741 5740 5740 5739 5738 5737 5737 5737 5737 5737 5737 5736 5735 5734 5733 5732 5732 5731 5731 5730 5729 5728 5727 5726 5725 5725 5724 5723 5722 5721 5720 5719
5768 5764 5761 5759 5754 5751 5749 5747 5745 5744 5742 5741 5740 5740 5739 5738 5738 5737 5737 5737 5737 5737 5736 5735 5734 5732 5731 5730 5730 5730 5730 5729 5728 5727 5727 5726 5725 5724 5723 5722 5721 5720 5719
5770 5765 5761 5758 5755 5752 5749 5746 5745 5744 5742 5742 5741 5740 5739 5739 5739 5738 5737 5737 5737 5736 5735 5735 5733 5732 5730 5730 5729 5730 5729 5729 5728 5728 5727 5726 5725 5725 5724 5723 5721 5720 5720
5770 5766 5762 5758 5755 5751 5748 5746 5744 5742 5742 5741 5741 5741 5740 5740 5739 5738 5738 5737 5737 5736 5735 5734 5732 5732 5730 5730 5730 5729 5729 5729 5728 5728 5727 5727 5726 5725 5724 5723 5722 5721 5720
5769 5764 5760 5757 5753 5750 5747 5744 5742 5740 5741 5741 5741 5741 5740 5740 5739 5738 5738 5737 5737 5736 5735 5734 5732 5730 5729 5729 5726 5725 5727 5728 5729 5729 5728 5727 5727 5726 5725 5724 5723 5722 5721
5768 5764 5760 5757 5753 5750 5747 5745 5744 5743 5742 5742 5742 5741 5741 5740 5739 5738 5738 5737 5737 5735 5734 5733 5732 5730 5728 5728 5725 5721 5719 5722 5726 5729 5728 5728 5728 5727 5726 5725 5723 5722 5721
5768 5765 5761 5757 5754 5750 5748 5745 5744 5742 5741 5740 5740 5740 5741 5740 5740 5739 5738 5738 5737 5736 5735 5734 5733 5730 5727 5727 5727 5723 5717 5715 5719 5724 5726 5727 5727 5726 5726 5725 5724 5723 5721
5769 5767 5762 5758 5754 5751 5749 5746 5743 5740 5738 5739 5740 5741 5741 5741 5740 5740 5739 5738 5738 5737 5736 5735 5734 5733 5730 5726 5726 5726 5725 5723 5717 5716 5721 5724 5725 5724 5724 5724 5723 5722 5721
5770 5767 5763 5759 5755 5753 5750 5747 5744 5742 5741 5740 5740 5740 5741 5741 5741 5740 5739 5739 5738 5738 5737 5736 5735 5734 5732 5729 5727 5725 5723 5721 5721 5716 5714 5718 5721 5722 5722 5722 5721 5720 5719
5770 5767 5763 5759 5756 5754 5751 5748 5746 5743 5741 5740 5739 5739 5739 5740 5740 5740 5739 5739 5739 5738 5738 5737 5736 5735 5733 5731 5729 5727 5725 5721 5719 5717 5714 5714 5715 5718 5719 5719 5718 5717 5716